TimeMST,TemperatureF,Dew PointF,Humidity,Sea Level PressureIn,VisibilityMPH,Wind Direction,Wind SpeedMPH,Gust SpeedMPH,PrecipitationIn,Events,Conditions,WindDirDegrees,DateUTC
12:15 AM,18.9,8.6,64,30.06,10.0,NW,6.9,-,N/A,,Clear,320,2013-02-27 07:15:00
12:35 AM,19.0,8.6,64,30.07,10.0,NW,8.1,-,N/A,,Clear,310,2013-02-27 07:35:00
12:55 AM,18.9,8.6,64,30.08,10.0,North,8.1,-,N/A,,Clear,350,2013-02-27 07:55:00
1:15 AM,16.3,8.2,70,30.08,10.0,North,8.1,-,N/A,,Clear,350,2013-02-27 08:15:00
1:35 AM,16.0,8.2,72,30.08,10.0,NW,10.4,-,N/A,,Clear,310,2013-02-27 08:35:00
1:55 AM,15.4,8.8,75,30.08,10.0,WNW,6.9,-,N/A,,Clear,290,2013-02-27 08:55:00
2:15 AM,18.1,8.6,66,30.10,10.0,Calm,Calm,-,N/A,,Clear,0,2013-02-27 09:15:00
2:35 AM,19.6,8.1,61,30.09,10.0,Calm,Calm,-,N/A,,Clear,0,2013-02-27 09:35:00
2:55 AM,13.1,7.0,77,30.09,10.0,NNE,4.6,-,N/A,,Clear,30,2013-02-27 09:55:00
3:15 AM,15.6,7.5,70,30.10,10.0,NE,5.8,-,N/A,,Clear,40,2013-02-27 10:15:00
3:35 AM,12.4,5.4,73,30.11,10.0,East,3.5,-,N/A,,Clear,90,2013-02-27 10:35:00
3:55 AM,10.2,4.6,78,30.11,10.0,East,3.5,-,N/A,,Clear,90,2013-02-27 10:55:00
4:15 AM,9.5,3.7,77,30.12,10.0,Calm,Calm,-,N/A,,Clear,0,2013-02-27 11:15:00
4:35 AM,8.6,3.0,78,30.14,10.0,SSE,3.5,-,N/A,,Clear,150,2013-02-27 11:35:00
4:55 AM,8.6,2.7,77,30.15,10.0,Calm,Calm,-,N/A,,Clear,0,2013-02-27 11:55:00
5:15 AM,7.0,1.9,80,30.16,10.0,Calm,Calm,-,N/A,,Clear,0,2013-02-27 12:15:00
5:55 AM,10.4,3.2,73,30.17,10.0,Calm,Calm,-,N/A,,Clear,0,2013-02-27 12:55:00
6:15 AM,8.1,2.7,79,30.17,10.0,Calm,Calm,-,N/A,,Clear,0,2013-02-27 13:15:00
6:35 AM,5.5,0.7,80,30.19,10.0,Calm,Calm,-,N/A,,Clear,0,2013-02-27 13:35:00
6:55 AM,4.5,-0.2,81,30.20,10.0,NE,5.8,-,N/A,,Clear,50,2013-02-27 13:55:00
7:15 AM,5.5,1.2,82,30.21,10.0,NE,3.5,-,N/A,,Clear,40,2013-02-27 14:15:00
7:35 AM,8.6,4.3,83,30.22,10.0,NE,4.6,-,N/A,,Clear,50,2013-02-27 14:35:00
8:15 AM,14.2,6.8,73,30.25,10.0,NE,3.5,-,N/A,,Clear,40,2013-02-27 15:15:00
8:35 AM,16.3,7.5,68,30.25,10.0,Calm,Calm,-,N/A,,Clear,0,2013-02-27 15:35:00
8:55 AM,19.8,9.5,64,30.26,10.0,Calm,Calm,-,N/A,,Clear,0,2013-02-27 15:55:00
9:15 AM,22.5,10.9,61,30.26,10.0,ENE,3.5,-,N/A,,Clear,70,2013-02-27 16:15:00
9:35 AM,25.0,12.4,59,30.26,10.0,ENE,4.6,-,N/A,,Clear,70,2013-02-27 16:35:00
9:55 AM,26.4,13.1,57,30.27,10.0,Calm,Calm,-,N/A,,Clear,0,2013-02-27 16:55:00
10:15 AM,27.5,12.4,53,30.27,10.0,NNE,3.5,-,N/A,,Clear,30,2013-02-27 17:15:00
10:35 AM,27.3,13.1,55,30.26,10.0,NNE,3.5,-,N/A,,Clear,30,2013-02-27 17:35:00
11:15 AM,28.6,16.5,61,30.26,10.0,SSW,3.5,-,N/A,,Clear,200,2013-02-27 18:15:00
11:55 AM,30.0,16.7,58,30.26,10.0,South,3.5,-,N/A,,Clear,180,2013-02-27 18:55:00
12:15 PM,30.2,15.4,54,30.26,10.0,SSE,4.6,-,N/A,,Clear,160,2013-02-27 19:15:00
12:35 PM,31.6,16.2,53,30.25,10.0,SSE,5.8,-,N/A,,Clear,150,2013-02-27 19:35:00
12:55 PM,31.8,17.1,55,30.23,10.0,ESE,6.9,-,N/A,,Clear,120,2013-02-27 19:55:00
1:15 PM,32.4,16.9,53,30.23,10.0,SE,6.9,-,N/A,,Clear,140,2013-02-27 20:15:00
1:35 PM,32.4,17.1,53,30.22,10.0,South,8.1,-,N/A,,Clear,170,2013-02-27 20:35:00
1:55 PM,32.5,17.4,54,30.22,10.0,SSE,5.8,-,N/A,,Clear,150,2013-02-27 20:55:00
2:15 PM,32.9,17.6,53,30.22,10.0,South,6.9,-,N/A,,Clear,170,2013-02-27 21:15:00
2:35 PM,32.7,16.7,52,30.21,10.0,SSE,4.6,-,N/A,,Clear,160,2013-02-27 21:35:00
2:55 PM,33.1,16.3,50,30.21,10.0,South,4.6,-,N/A,,Clear,180,2013-02-27 21:55:00
3:15 PM,34.0,14.9,46,30.21,10.0,ESE,3.5,-,N/A,,Clear,120,2013-02-27 22:15:00
3:35 PM,34.5,16.9,49,30.20,10.0,SSE,5.8,-,N/A,,Clear,160,2013-02-27 22:35:00
3:55 PM,34.2,17.4,50,30.20,10.0,SE,4.6,-,N/A,,Clear,130,2013-02-27 22:55:00
4:15 PM,34.2,15.3,46,30.20,10.0,SE,4.6,-,N/A,,Clear,140,2013-02-27 23:15:00
4:35 PM,34.5,15.8,46,30.19,10.0,SSE,4.6,-,N/A,,Clear,150,2013-02-27 23:35:00
4:55 PM,33.1,19.6,58,30.19,10.0,South,5.8,-,N/A,,Clear,170,2013-02-27 23:55:00
5:15 PM,32.4,20.1,61,30.20,10.0,South,5.8,-,N/A,,Clear,170,2013-02-28 00:15:00
5:35 PM,30.4,21.4,69,30.20,10.0,South,4.6,-,N/A,,Clear,190,2013-02-28 00:35:00
5:55 PM,27.5,20.8,76,30.20,10.0,South,6.9,-,N/A,,Clear,170,2013-02-28 00:55:00
6:15 PM,25.2,20.3,82,30.20,10.0,Calm,Calm,-,N/A,,Clear,0,2013-02-28 01:15:00
6:35 PM,25.7,19.2,76,30.21,10.0,SSW,4.6,-,N/A,,Clear,210,2013-02-28 01:35:00
7:15 PM,23.0,17.6,80,30.22,10.0,SSE,5.8,-,N/A,,Clear,160,2013-02-28 02:15:00
7:35 PM,22.5,16.9,79,30.22,10.0,SSE,4.6,-,N/A,,Clear,150,2013-02-28 02:35:00
7:55 PM,21.7,16.9,82,30.23,10.0,SSE,5.8,-,N/A,,Clear,160,2013-02-28 02:55:00
8:15 PM,22.6,16.2,76,30.22,10.0,SSE,4.6,-,N/A,,Clear,160,2013-02-28 03:15:00
8:35 PM,19.6,14.9,82,30.22,10.0,Calm,Calm,-,N/A,,Clear,0,2013-02-28 03:35:00
8:55 PM,19.4,14.4,81,30.23,10.0,Calm,Calm,-,N/A,,Clear,0,2013-02-28 03:55:00
9:35 PM,19.4,14.7,82,30.24,10.0,NE,4.6,-,N/A,,Clear,50,2013-02-28 04:35:00
10:15 PM,15.8,12.0,85,30.25,10.0,East,3.5,-,N/A,,Clear,80,2013-02-28 05:15:00
10:35 PM,15.8,11.3,82,30.24,10.0,East,3.5,-,N/A,,Clear,80,2013-02-28 05:35:00
11:15 PM,13.8,10.4,86,30.24,10.0,Calm,Calm,-,N/A,,Clear,0,2013-02-28 06:15:00
11:35 PM,13.5,9.9,86,30.23,10.0,Calm,Calm,-,N/A,,Clear,0,2013-02-28 06:35:00
11:55 PM,13.5,9.9,86,30.23,10.0,Calm,Calm,-,N/A,,Clear,0,2013-02-28 06:55:00